Waterbury, CT

7:36 AM EDT on August 24, 2016 (GMT -0400)
Waterbury-Oxford

Weather History for KOXC - August, 2013

Change the Weather History Date:

Sunday, August 25, 2013

  Actual Average Record
Temperature  
Mean Temperature 64 °F -  
Max Temperature 78 °F 75 °F 87 °F (1998)
Min Temperature 51 °F 57 °F 51 °F (2005)
Growing Degree Days 14 (Base 50)    
Moisture  
Dew Point 51 °F    
Average Humidity 69    
Maximum Humidity 88    
Minimum Humidity 38    
Precipitation  
Precipitation 0.00 in - - ()
Sea Level Pressure  
Sea Level Pressure 30.34 in    
Wind  
Wind Speed 1 mph (West)    
Max Wind Speed 7 mph    
Max Gust Speed -    
Visibility 10 miles    
Events      
Averages and records for this station are not official NWS values.
T = Trace of Precipitation, MM = Missing Value Source: NWS Daily Summary

Daily Weather History Graph

Daily Weather History Graph

Search for Another Location

Airport or City:

Trip Planner

Search our weather history database for the weather conditions in past years. The results will help you decide how hot, cold, wet, or windy it might be!

Date:

Astronomy

Aug. 25, 2013 Rise Set
Actual Time 6:11 AM EDT 7:36 PM EDT
Civil Twilight 5:42 AM EDT 8:05 PM EDT
Nautical Twilight 5:08 AM EDT 8:40 PM EDT
Astronomical Twilight 4:31 AM EDT 9:16 PM EDT
Moon 10:01 PM EDT (8/25) 11:15 AM EDT (8/25)
Length of Visible Light 14h 22m
Length of Day
13h 24m
Waning Gibbous, 76% of the Moon is Illuminated
Aug 25
Waning Gibbous
Aug 28
Last Quarter
Sep 5
New
Sep 12
First Quarter
Sep 19
Full

Hourly Weather History & Observations

Time (EDT) Temp. Dew Point Humidity Pressure Visibility Wind Dir Wind Speed Gust Speed Precip Events Conditions
12:15 AM 55.4 °F 48.2 °F 77% 30.39 in 10.0 mi Calm Calm - N/A   Clear
12:35 AM 53.6 °F 48.2 °F 82% 30.38 in 10.0 mi Calm Calm - N/A   Clear
12:55 AM 53.6 °F 48.2 °F 82% 30.38 in 10.0 mi Calm Calm - N/A   Clear
1:15 AM 53.6 °F 48.2 °F 82% 30.37 in 10.0 mi Calm Calm - N/A   Clear
1:35 AM 53.6 °F 48.2 °F 82% 30.37 in 10.0 mi Calm Calm - N/A   Clear
1:55 AM 53.6 °F 48.2 °F 82% 30.37 in 10.0 mi Calm Calm - N/A   Clear
2:15 AM 53.6 °F 48.2 °F 82% 30.36 in 10.0 mi Calm Calm - N/A   Clear
2:35 AM 51.8 °F 46.4 °F 82% 30.36 in 10.0 mi Calm Calm - N/A   Clear
2:55 AM 53.6 °F 48.2 °F 82% 30.36 in 10.0 mi NNE 3.5 mph - N/A   Clear
3:15 AM 53.6 °F 48.2 °F 82% 30.36 in 10.0 mi Calm Calm - N/A   Clear
3:35 AM 51.8 °F 48.2 °F 88% 30.36 in 10.0 mi Calm Calm - N/A   Clear
3:55 AM 51.8 °F 46.4 °F 82% 30.36 in 10.0 mi Calm Calm - N/A   Clear
4:15 AM 53.6 °F 48.2 °F 82% 30.36 in 10.0 mi North 4.6 mph - N/A   Clear
4:35 AM 51.8 °F 46.4 °F 82% 30.36 in 10.0 mi Calm Calm - N/A   Clear
4:55 AM 53.6 °F 48.2 °F 82% 30.37 in 10.0 mi Calm Calm - N/A   Clear
5:15 AM 51.8 °F 46.4 °F 82% 30.38 in 10.0 mi Calm Calm - N/A   Clear
5:35 AM 51.8 °F 46.4 °F 82% 30.38 in 10.0 mi Calm Calm - N/A   Clear
5:45 AM 51.8 °F 46.4 °F 82% 30.38 in 10.0 mi Calm Calm - N/A   Clear
6:55 AM 51.8 °F 46.4 °F 82% 30.40 in 10.0 mi Calm Calm - N/A   Clear
7:45 AM 57.2 °F 51.8 °F 82% 30.41 in 10.0 mi Calm Calm - N/A   Clear
8:45 AM 66.2 °F 57.2 °F 73% 30.41 in 10.0 mi Calm Calm - N/A   Clear
9:45 AM 69.8 °F 57.2 °F 64% 30.41 in 10.0 mi NNW 4.6 mph - N/A   Clear
10:49 AM 69.8 °F 57.2 °F 64% 30.41 in 10.0 mi North 4.6 mph - N/A   Clear
11:45 AM 75.2 °F 51.8 °F 44% 30.39 in 10.0 mi NNE 4.6 mph - N/A   Clear
12:45 PM 75.2 °F 48.2 °F 38% 30.37 in 10.0 mi Calm Calm - N/A   Clear
1:45 PM 77.0 °F 50.0 °F 39% 30.36 in 10.0 mi WNW 6.9 mph - N/A   Clear
2:45 PM 78.8 °F 51.8 °F 39% 30.35 in 10.0 mi Variable 5.8 mph - N/A   Clear
3:45 PM 78.8 °F 53.6 °F 42% 30.34 in 10.0 mi Variable 3.5 mph - N/A   Clear
4:45 PM 78.8 °F 53.6 °F 42% 30.32 in 10.0 mi NW 5.8 mph - N/A   Clear
5:45 PM 78.8 °F 53.6 °F 42% 30.30 in 10.0 mi West 5.8 mph - N/A   Clear
6:45 PM 75.2 °F 53.6 °F 47% 30.28 in 10.0 mi West 3.5 mph - N/A   Clear
7:45 PM 71.6 °F 51.8 °F 50% 30.26 in 10.0 mi Calm Calm - N/A   Clear
8:55 PM 66.2 °F 51.8 °F 60% 30.27 in 10.0 mi Calm Calm - N/A   Clear
9:15 PM 66.2 °F 51.8 °F 60% 30.27 in 10.0 mi Calm Calm - N/A   Clear
9:35 PM 64.4 °F 53.6 °F 68% 30.27 in 10.0 mi SSW 3.5 mph - N/A   Clear
9:55 PM 64.4 °F 53.6 °F 68% 30.27 in 10.0 mi SW 4.6 mph - N/A   Clear
10:15 PM 64.4 °F 53.6 °F 68% 30.27 in 10.0 mi SSW 4.6 mph - N/A   Clear
10:35 PM 64.4 °F 53.6 °F 68% 30.26 in 10.0 mi SSW 4.6 mph - N/A   Clear
10:55 PM 64.4 °F 53.6 °F 68% 30.26 in 10.0 mi SSW 3.5 mph - N/A   Clear
11:15 PM 64.4 °F 53.6 °F 68% 30.25 in 10.0 mi SSW 3.5 mph - N/A   Clear
11:35 PM 64.4 °F 53.6 °F 68% 30.25 in 10.0 mi SSW 3.5 mph - N/A   Clear
11:55 PM 64.4 °F 53.6 °F 68% 30.26 in 10.0 mi SW 3.5 mph - N/A   Clear